Location: Orange
(33.2833°S, 149.1000°E)
Time: 17:15:36
(UTC+11:00)

LightSail 2 - Visible Passes

Search period start: 15 December 2019 00:00
Search period end: 25 December 2019 00:00
Orbit: 696 x 730 km, 24.0° (Epoch: 14 December)

Date Brightness Start Highest point End Pass type
(mag) Time Alt. Az. Time Alt. Az. Time Alt. Az.
15 Dec 6.8 03:30:58 20° NE 03:30:58 20° NE 03:32:57 10° NE visible
15 Dec 6.6 05:10:10 10° WNW 05:13:36 18° NNW 05:17:02 10° NNE visible
16 Dec 6.4 04:15:48 21° N 04:15:48 21° N 04:19:28 10° NE visible
17 Dec 6.9 05:00:49 11° NW 05:02:32 13° NNW 05:04:45 10° N visible
18 Dec 7.2 04:06:59 12° NNE 04:06:59 12° NNE 04:07:39 10° NNE visible
20 Dec 6.6 21:37:02 10° NNW 21:40:13 19° N 21:40:13 19° N visible
21 Dec 6.8 20:39:36 10° NNW 20:42:35 15° NNE 20:45:34 10° NE visible
21 Dec 6.8 22:23:14 10° NW 22:25:10 19° NNW 22:25:10 19° NNW visible
22 Dec 6.3 21:25:20 10° NW 21:29:28 24° N 21:30:56 21° NE visible
23 Dec 6.3 22:11:57 10° WNW 22:15:33 27° NNW 22:15:33 27° NNW visible
24 Dec 6.2 21:13:55 10° NW 21:18:19 28° N 21:21:03 18° NE visible
24 Dec 7.3 22:59:00 10° WNW 23:00:01 15° NW 23:00:01 15° NW visible
